Terug naar catalogus

SL-12 R/B

AUX MOTOR

ActiefHEO
NORAD 15266·ROCKET BODY·🇷🇺 Russia

Gelanceerd Sep 4, 1984 vanaf Baikonur Cosmodrome

Loading…

Volgende Passages (komende 24 uur)

TLE

VersSource: Space-Track

Epoch: Sep 13, 2026, 06:32 UTC

1 15266U 84095H   26256.27228005  .00001491  00000-0  60852-3 0  9992
2 15266  52.0162 261.7668 5391938 298.6579  17.7984  4.92682493698925

Volg SL-12 R/B in realtime met AllMySat

Download on the App Store